Hayward, WI

5:14 PM CST on December 07, 2016 (GMT -0600)
Sawyer County

Weather History for KHYR - February, 2014

Change the Weather History Date:

Thursday, February 27, 2014

  Actual Average Record
Temperature  
Mean Temperature -12 °F -  
Max Temperature -2 °F 34 °F 54 °F (2016)
Min Temperature -24 °F 13 °F -24 °F (2014)
Degree Days  
Heating Degree Days 78    
Moisture  
Dew Point -25 °F    
Average Humidity 54    
Maximum Humidity 74    
Minimum Humidity 31    
Precipitation  
Precipitation 0.00 in - - ()
Sea Level Pressure  
Sea Level Pressure 30.15 in    
Wind  
Wind Speed 3 mph (SW)    
Max Wind Speed 7 mph    
Max Gust Speed -    
Visibility 10 miles    
Events      
Averages and records for this station are not official NWS values.
T = Trace of Precipitation, MM = Missing Value Source: NWS Daily Summary

Daily Weather History Graph

Daily Weather History Graph

Search for Another Location

Airport or City:

Trip Planner

Search our weather history database for the weather conditions in past years. The results will help you decide how hot, cold, wet, or windy it might be!

Date:

Astronomy

Feb. 27, 2014 Rise Set
Actual Time 6:48 AM CST 5:49 PM CST
Civil Twilight 6:18 AM CST 6:19 PM CST
Nautical Twilight 5:43 AM CST 6:54 PM CST
Astronomical Twilight 5:08 AM CST 7:28 PM CST
Moon 5:25 AM CST (2/27) 4:12 PM CST (2/27)
Length of Visible Light 12h 01m
Length of Day
11h 01m
Waning Crescent, 4% of the Moon is Illuminated
Feb 27
Waning Crescent
Mar 1
New
Mar 8
First Quarter
Mar 16
Full
Mar 23
Last Quarter

Hourly Weather History & Observations

Time (CST) Temp. Windchill Dew Point Humidity Pressure Visibility Wind Dir Wind Speed Gust Speed Precip Events Conditions
12:53 AM -9.0 °F -18.2 °F -20.0 °F 59% 29.92 in 10.0 mi Variable 3.5 mph - N/A   Clear
1:53 AM -9.9 °F -19.2 °F -22.0 °F 55% 29.96 in 10.0 mi Variable 3.5 mph - N/A   Partly Cloudy
2:53 AM -11.9 °F -21.5 °F -22.0 °F 61% 29.98 in 10.0 mi Variable 3.5 mph - N/A   Clear
3:53 AM -13.0 °F -28.6 °F -23.1 °F 61% 30.02 in 10.0 mi Variable 6.9 mph - N/A   Clear
4:53 AM -15.0 °F - -25.1 °F 61% 30.07 in 10.0 mi Calm Calm - N/A   Clear
5:53 AM -17.0 °F - -26.0 °F 64% 30.11 in 10.0 mi Calm Calm - N/A   Clear
6:53 AM -18.0 °F -28.5 °F -26.0 °F 67% 30.14 in 10.0 mi Variable 3.5 mph - N/A   Clear
7:53 AM -17.0 °F -31.7 °F -26.0 °F 64% 30.17 in 10.0 mi Variable 5.8 mph - N/A   Clear
8:53 AM -15.0 °F -31.0 °F -26.0 °F 58% 30.19 in 10.0 mi Variable 6.9 mph - N/A   Clear
9:53 AM -13.0 °F -27.0 °F -25.1 °F 55% 30.21 in 10.0 mi Variable 5.8 mph - N/A   Clear
10:53 AM -9.0 °F -20.4 °F -24.0 °F 48% 30.21 in 10.0 mi Variable 4.6 mph - N/A   Clear
11:53 AM -7.1 °F -15.9 °F -25.1 °F 41% 30.21 in 10.0 mi Variable 3.5 mph - N/A   Clear
12:53 PM -4.0 °F -16.3 °F -26.0 °F 34% 30.19 in 10.0 mi Variable 5.8 mph - N/A   Clear
1:53 PM -2.9 °F - -27.0 °F 31% 30.18 in 10.0 mi Calm Calm - N/A   Clear
2:53 PM -2.9 °F -13.3 °F -25.1 °F 34% 30.19 in 10.0 mi Variable 4.6 mph - N/A   Clear
3:53 PM -2.0 °F -12.2 °F -26.0 °F 31% 30.18 in 10.0 mi West 4.6 mph - N/A   Clear
4:53 PM -2.9 °F -15.0 °F -25.1 °F 34% 30.18 in 10.0 mi SW 5.8 mph - N/A   Clear
5:53 PM -5.1 °F -13.6 °F -24.0 °F 40% 30.18 in 10.0 mi SSW 3.5 mph - N/A   Clear
6:53 PM -14.1 °F - -23.1 °F 64% 30.20 in 10.0 mi Calm Calm - N/A   Clear
7:53 PM -16.1 °F - -25.1 °F 64% 30.20 in 10.0 mi Calm Calm - N/A   Clear
8:53 PM -18.9 °F - -25.1 °F 74% 30.20 in 10.0 mi Calm Calm - N/A   Clear
9:53 PM -20.9 °F - -27.9 °F 70% 30.20 in 10.0 mi Calm Calm - N/A   Clear
10:53 PM -23.1 °F - -31.0 °F 67% 30.21 in 10.0 mi Calm Calm - N/A   Clear
11:53 PM -24.0 °F - -31.0 °F 70% 30.19 in 10.0 mi Calm Calm - N/A   Clear